Flag for United Kingdom Weather past 2 weeks in Peterborough, England, United Kingdom

Now
50 °F

Cool.


Feels Like: 43 °F
Forecast: 38 / 52 °F
Wind: 24 mph from Southwest

Location: Wittering

Current Time: Mar 1, 2015 at 12:37:39 AM

Latest Report: Feb 28, 2015 at 11:50 PM


Visibility: N/A

Pressure: 29.27 "Hg

Humidity: 88%

Dew point: 46 °F

Location of PeterboroughLocation

Historic Weather in Peterborough — Graph

°F

Peterborough temperature yesterday

Maximum temperature yesterday: 52 °F (at 2:50 PM)
Minimum temperature yesterday: 39 °F (at 12:50 AM)
Average temperature yesterday: 46 °F

Past Weeks' High & Low Weather Summary

 TemperatureHumidityPressure
High52 °F (Feb 26, 9:50 AM)100% (Feb 13, 10:50 PM)30.69 "Hg (Feb 13, 10:50 PM)
Low30 °F (Feb 22, 4:50 AM)50% (Feb 24, 2:50 PM)29.12 "Hg (Feb 22, 9:50 PM)
Average41 °F86%29.83 "Hg
* Reported Feb 13 10:50 PM — Feb 28 10:50 PM, Peterborough, Weather by CustomWeather, © 2015

Note: Actual official high and low records may vary slightly from our data, if they occured in-between our weather recording intervals... More about our weather records

Advertising

Peterborough weather history for previous 24 hours

 ConditionsComfort  
Time TempWeatherWind HumidityBarometerVisibility
10:50 PM
Sat, Feb 28
50 °FSprinkles. Partly cloudy.20 mph100%29.30 "HgN/A
9:50 PM50 °FPassing clouds.21 mph94%29.30 "HgN/A
8:50 PM48 °FRain showers. Partly cloudy.26 mph94%29.36 "HgN/A
7:50 PM46 °FRain. Passing clouds.25 mph93%29.39 "Hg6 mi
6:50 PM48 °FLight rain. Passing clouds.24 mph87%29.42 "HgN/A
5:50 PM48 °FOvercast.21 mph82%29.47 "HgN/A
4:50 PM50 °FPartly sunny.21 mph76%29.50 "HgN/A
3:50 PM50 °FBroken clouds.20 mph76%29.53 "HgN/A
2:50 PM52 °FPartly sunny.20 mph82%29.59 "HgN/A
1:50 PM50 °FPartly sunny.16 mph88%29.62 "HgN/A
12:50 PM48 °FFog.17 mph94%29.65 "Hg6 mi
11:50 AM46 °FLow clouds.21 mph100%29.68 "HgN/A
10:50 AM45 °FLow clouds.20 mph100%29.71 "HgN/A
9:50 AM45 °FPartly sunny.20 mph100%29.74 "HgN/A
8:50 AM43 °FDrizzle. Low clouds.16 mph100%29.77 "Hg2 mi
7:50 AM43 °FFog.17 mph93%29.77 "Hg3 mi
6:50 AM43 °FDrizzle. Low clouds.15 mph93%29.80 "HgN/A
5:50 AM43 °FLow clouds.20 mph93%29.80 "HgN/A
4:50 AM41 °FLow clouds.13 mph100%29.86 "HgN/A
3:50 AM41 °FPassing clouds.14 mph93%29.86 "Hg2 mi
2:50 AM41 °FPassing clouds.16 mph87%29.89 "HgN/A
1:50 AM39 °FPassing clouds.13 mph87%29.92 "HgN/A
12:50 AM39 °FPassing clouds.13 mph87%29.95 "HgN/A
Weather by CustomWeather, © 2015

See weather overviewHow to use our weather pages